TimeCDT,TemperatureF,Dew PointF,Humidity,Sea Level PressureIn,VisibilityMPH,Wind Direction,Wind SpeedMPH,Gust SpeedMPH,PrecipitationIn,Events,Conditions,WindDirDegrees,DateUTC
12:15 AM,54.7,52.7,93,29.92,10.0,NNW,3.5,-,N/A,,Clear,330,2013-09-25 05:15:00
12:35 AM,54.5,52.7,94,29.92,7.0,NNW,3.5,-,N/A,,Clear,340,2013-09-25 05:35:00
12:55 AM,53.1,51.1,93,29.92,7.0,NW,4.6,-,N/A,,Clear,320,2013-09-25 05:55:00
1:15 AM,53.4,51.6,94,29.92,5.0,Calm,Calm,-,N/A,,Clear,0,2013-09-25 06:15:00
1:35 AM,53.1,51.3,94,29.92,7.0,Calm,Calm,-,N/A,,Clear,0,2013-09-25 06:35:00
1:55 AM,54.0,52.3,94,29.91,5.0,Calm,Calm,-,N/A,,Clear,0,2013-09-25 06:55:00
2:35 AM,52.0,50.4,94,29.91,4.0,North,3.5,-,N/A,,Clear,350,2013-09-25 07:35:00
2:55 AM,52.0,50.5,95,29.91,4.0,WNW,3.5,-,N/A,,Clear,300,2013-09-25 07:55:00
3:15 AM,51.3,49.6,94,29.91,2.5,NW,4.6,-,N/A,,Clear,320,2013-09-25 08:15:00
3:35 AM,51.6,50.2,95,29.91,2.5,Calm,Calm,-,N/A,,Clear,0,2013-09-25 08:35:00
3:55 AM,50.5,49.1,95,29.92,4.0,NW,3.5,-,N/A,,Clear,320,2013-09-25 08:55:00
4:35 AM,50.0,48.6,95,29.92,5.0,NNW,3.5,-,N/A,,Clear,330,2013-09-25 09:35:00
4:55 AM,50.5,49.1,95,29.91,4.0,North,4.6,-,N/A,,Clear,350,2013-09-25 09:55:00
5:15 AM,50.4,49.1,95,29.91,4.0,NNW,4.6,-,N/A,,Clear,340,2013-09-25 10:15:00
5:35 AM,50.2,48.7,95,29.91,0.2,NNW,3.5,-,N/A,Fog,Fog,330,2013-09-25 10:35:00
5:55 AM,50.2,48.6,94,29.91,0.2,North,3.5,-,N/A,Fog,Fog,350,2013-09-25 10:55:00
6:15 AM,49.1,47.7,95,29.91,0.8,NW,3.5,-,N/A,,Overcast,310,2013-09-25 11:15:00
6:35 AM,49.6,48.4,95,29.91,0.5,Calm,Calm,-,N/A,Fog,Fog,0,2013-09-25 11:35:00
6:55 AM,49.5,48.2,95,29.91,0.8,North,5.8,-,N/A,,Overcast,350,2013-09-25 11:55:00
7:15 AM,49.1,47.8,95,29.92,0.2,North,3.5,-,N/A,Fog,Fog,350,2013-09-25 12:15:00
7:35 AM,49.5,48.2,95,29.92,0.2,NNW,3.5,-,N/A,Fog,Fog,330,2013-09-25 12:35:00
7:55 AM,50.2,49.1,96,29.92,0.2,Calm,Calm,-,N/A,Fog,Fog,0,2013-09-25 12:55:00
8:15 AM,51.1,50.0,96,29.92,0.2,Calm,Calm,-,N/A,Fog,Fog,0,2013-09-25 13:15:00
8:35 AM,53.1,51.8,95,29.92,0.5,Calm,Calm,-,N/A,Fog,Fog,0,2013-09-25 13:35:00
8:55 AM,55.6,54.5,96,29.91,3.0,Calm,Calm,-,N/A,,Scattered Clouds,0,2013-09-25 13:55:00
9:15 AM,58.1,56.7,95,29.92,7.0,SE,3.5,-,N/A,,Clear,130,2013-09-25 14:15:00
9:35 AM,60.3,57.2,90,29.92,7.0,SE,4.6,-,N/A,,Clear,130,2013-09-25 14:35:00
9:55 AM,62.8,57.9,84,29.92,10.0,SSE,6.9,-,N/A,,Clear,150,2013-09-25 14:55:00
10:15 AM,64.4,58.3,80,29.92,10.0,SE,8.1,-,N/A,,Clear,140,2013-09-25 15:15:00
10:35 AM,65.8,58.5,77,29.92,10.0,SE,9.2,-,N/A,,Clear,140,2013-09-25 15:35:00
10:55 AM,69.3,58.1,68,29.92,10.0,SSE,8.1,-,N/A,,Clear,150,2013-09-25 15:55:00
11:15 AM,71.6,57.4,61,29.91,10.0,SSE,10.4,-,N/A,,Clear,160,2013-09-25 16:15:00
11:35 AM,72.9,57.7,59,29.91,10.0,SE,10.4,16.1,N/A,,Clear,140,2013-09-25 16:35:00
11:55 AM,73.8,57.9,58,29.90,10.0,SE,11.5,-,N/A,,Clear,140,2013-09-25 16:55:00
12:15 PM,74.5,58.3,57,29.88,10.0,ESE,9.2,-,N/A,,Scattered Clouds,120,2013-09-25 17:15:00
12:35 PM,76.1,57.6,53,29.87,10.0,SE,15.0,21.9,N/A,,Scattered Clouds,130,2013-09-25 17:35:00
1:15 PM,77.4,55.4,47,29.86,10.0,SE,12.7,20.7,N/A,,Scattered Clouds,140,2013-09-25 18:15:00
1:55 PM,78.3,55.8,46,29.84,10.0,SSE,16.1,24.2,N/A,,Mostly Cloudy,160,2013-09-25 18:55:00
2:15 PM,80.6,55.0,41,29.83,10.0,SSE,17.3,23.0,N/A,,Mostly Cloudy,150,2013-09-25 19:15:00
2:35 PM,80.4,55.2,42,29.82,10.0,SSE,13.8,24.2,N/A,,Scattered Clouds,160,2013-09-25 19:35:00
2:55 PM,80.2,55.0,42,29.81,10.0,SE,12.7,21.9,N/A,,Scattered Clouds,130,2013-09-25 19:55:00
3:15 PM,80.8,55.0,41,29.80,10.0,SSE,13.8,23.0,N/A,,Scattered Clouds,150,2013-09-25 20:15:00
3:55 PM,81.1,55.0,41,29.80,10.0,SSE,16.1,-,N/A,,Clear,160,2013-09-25 20:55:00
4:15 PM,80.6,54.9,41,29.79,10.0,SSE,13.8,23.0,N/A,,Clear,150,2013-09-25 21:15:00
4:35 PM,80.8,55.4,42,29.78,10.0,SSE,13.8,24.2,N/A,,Clear,150,2013-09-25 21:35:00
4:55 PM,80.6,55.4,42,29.77,10.0,SSE,19.6,25.3,N/A,,Clear,150,2013-09-25 21:55:00
5:15 PM,80.2,55.4,42,29.77,10.0,SE,16.1,23.0,N/A,,Clear,140,2013-09-25 22:15:00
5:35 PM,79.9,55.8,43,29.77,10.0,SE,15.0,23.0,N/A,,Clear,140,2013-09-25 22:35:00
5:55 PM,79.0,54.7,43,29.76,10.0,SSE,17.3,23.0,N/A,,Clear,150,2013-09-25 22:55:00
6:15 PM,78.1,55.4,45,29.75,10.0,SSE,17.3,21.9,N/A,,Clear,150,2013-09-25 23:15:00
6:35 PM,76.8,56.3,49,29.75,10.0,SSE,13.8,-,N/A,,Clear,150,2013-09-25 23:35:00
6:55 PM,75.2,56.7,52,29.74,10.0,SSE,12.7,19.6,N/A,,Clear,150,2013-09-25 23:55:00
7:15 PM,73.2,57.2,57,29.74,10.0,SE,10.4,-,N/A,,Clear,140,2013-09-26 00:15:00
7:35 PM,72.0,57.4,60,29.74,10.0,SE,10.4,-,N/A,,Clear,140,2013-09-26 00:35:00
7:55 PM,70.5,57.4,63,29.73,10.0,SE,10.4,-,N/A,,Clear,140,2013-09-26 00:55:00
8:15 PM,69.1,57.6,67,29.73,10.0,SE,8.1,-,N/A,,Clear,130,2013-09-26 01:15:00
8:35 PM,68.9,57.6,67,29.74,10.0,SE,9.2,-,N/A,,Clear,130,2013-09-26 01:35:00
8:55 PM,68.9,57.6,67,29.75,10.0,SE,10.4,-,N/A,,Clear,130,2013-09-26 01:55:00
9:15 PM,68.4,58.1,70,29.76,10.0,SE,9.2,-,N/A,,Clear,130,2013-09-26 02:15:00
9:35 PM,68.5,58.3,70,29.76,10.0,SE,9.2,-,N/A,,Clear,140,2013-09-26 02:35:00
9:55 PM,68.4,58.5,71,29.77,10.0,SSE,11.5,-,N/A,,Clear,150,2013-09-26 02:55:00
10:15 PM,68.4,58.6,71,29.77,10.0,SSE,10.4,-,N/A,,Clear,150,2013-09-26 03:15:00
10:35 PM,68.2,58.8,72,29.77,10.0,SSE,10.4,-,N/A,,Clear,150,2013-09-26 03:35:00
10:55 PM,67.1,59.0,75,29.78,10.0,SSE,8.1,-,N/A,,Clear,150,2013-09-26 03:55:00
11:15 PM,65.7,59.0,79,29.78,10.0,SE,6.9,-,N/A,,Clear,140,2013-09-26 04:15:00
11:35 PM,65.3,59.2,81,29.79,10.0,SE,6.9,-,N/A,,Clear,130,2013-09-26 04:35:00
11:55 PM,64.4,59.2,83,29.78,10.0,SE,8.1,-,N/A,,Clear,130,2013-09-26 04:55:00